SHU5626 UHHH-UHSS

Flight info

Callsign SHU5626
Flight time 0h 52m
Altitude 35000
Route NEBES DCT KELUL
Aircraft A319/M-SDE3FGHIRWY/LB1

Departure

Time 2026-05-06 19:37
Airport Khabarovsk Novy Airport (UHHH)

Arrival

Time 2026-05-06 20:30
Airport Yuzhno-Sakhalinsk International Airport (UHSS)
Time Latitude Longitude Altitude Speed Heading
2026-05-06 19:15 48.52531 135.17206 246 ft 0 kts 313°
2026-05-06 19:20 48.52529 135.17209 246 ft 3 kts 312°
2026-05-06 19:21 48.52515 135.17234 246 ft 3 kts 308°
2026-05-06 19:21 48.52502 135.17260 246 ft 3 kts 305°
2026-05-06 19:21 48.52490 135.17287 246 ft 3 kts 309°
2026-05-06 19:21 48.52475 135.17308 246 ft 3 kts 342°
2026-05-06 19:22 48.52465 135.17309 246 ft 1 kts 34°
2026-05-06 19:22 48.52462 135.17306 246 ft 0 kts 34°
2026-05-06 19:25 48.52467 135.17311 246 ft 3 kts 34°
2026-05-06 19:25 48.52487 135.17334 246 ft 4 kts 40°
2026-05-06 19:25 48.52509 135.17369 245 ft 5 kts 51°
2026-05-06 19:26 48.52509 135.17422 245 ft 5 kts 124°
2026-05-06 19:26 48.52483 135.17464 245 ft 6 kts 134°
2026-05-06 19:26 48.52454 135.17509 245 ft 6 kts 134°
2026-05-06 19:26 48.52424 135.17556 246 ft 6 kts 133°
2026-05-06 19:27 48.52393 135.17607 246 ft 7 kts 133°
2026-05-06 19:27 48.52360 135.17659 246 ft 7 kts 133°
2026-05-06 19:27 48.52327 135.17715 246 ft 7 kts 131°
2026-05-06 19:27 48.52293 135.17774 246 ft 8 kts 131°
2026-05-06 19:28 48.52259 135.17833 247 ft 7 kts 131°
2026-05-06 19:28 48.52223 135.17895 246 ft 9 kts 131°
2026-05-06 19:28 48.52175 135.17979 244 ft 12 kts 131°
2026-05-06 19:28 48.52114 135.18086 242 ft 14 kts 125°
2026-05-06 19:29 48.52132 135.18175 243 ft 10 kts 46°
2026-05-06 19:29 48.52186 135.18252 242 ft 11 kts 43°
2026-05-06 19:29 48.52242 135.18329 243 ft 11 kts 42°
2026-05-06 19:29 48.52300 135.18408 243 ft 11 kts 42°
2026-05-06 19:30 48.52360 135.18490 244 ft 11 kts 42°
2026-05-06 19:30 48.52416 135.18566 245 ft 10 kts 42°
2026-05-06 19:30 48.52468 135.18636 246 ft 10 kts 42°
2026-05-06 19:30 48.52522 135.18710 246 ft 10 kts 42°
2026-05-06 19:31 48.52574 135.18781 247 ft 10 kts 42°
2026-05-06 19:31 48.52625 135.18850 247 ft 10 kts 42°
2026-05-06 19:31 48.52743 135.19011 247 ft 12 kts 42°
2026-05-06 19:32 48.52807 135.19099 246 ft 13 kts 42°
2026-05-06 19:32 48.52880 135.19199 244 ft 15 kts 42°
2026-05-06 19:32 48.52955 135.19302 245 ft 15 kts 42°
2026-05-06 19:32 48.53032 135.19407 245 ft 15 kts 42°
2026-05-06 19:33 48.53109 135.19511 247 ft 14 kts 42°
2026-05-06 19:33 48.53185 135.19613 246 ft 15 kts 42°
2026-05-06 19:33 48.53265 135.19722 247 ft 16 kts 42°
2026-05-06 19:33 48.53348 135.19836 245 ft 17 kts 42°
2026-05-06 19:34 48.53439 135.19960 244 ft 18 kts 42°
2026-05-06 19:34 48.53535 135.20090 243 ft 19 kts 42°
2026-05-06 19:34 48.53634 135.20225 244 ft 19 kts 42°
2026-05-06 19:34 48.53716 135.20336 244 ft 11 kts 42°
2026-05-06 19:35 48.53756 135.20391 245 ft 7 kts 42°
2026-05-06 19:35 48.53799 135.20408 245 ft 6 kts 342°
2026-05-06 19:35 48.53843 135.20344 242 ft 11 kts 312°
2026-05-06 19:35 48.53904 135.20242 238 ft 15 kts 312°
2026-05-06 19:36 48.53943 135.20131 237 ft 9 kts 256°
2026-05-06 19:36 48.53925 135.20093 238 ft 0 kts 223°
2026-05-06 19:36 48.53925 135.20092 238 ft 2 kts 223°
2026-05-06 19:37 48.53784 135.19899 238 ft 65 kts 222°
2026-05-06 19:37 48.53275 135.19207 251 ft 129 kts 222°
2026-05-06 19:37 48.52485 135.18139 434 ft 162 kts 223°
2026-05-06 19:37 48.51653 135.17019 1162 ft 159 kts 225°
2026-05-06 19:38 48.50829 135.15892 1815 ft 161 kts 227°
2026-05-06 19:38 48.49999 135.14737 2454 ft 163 kts 228°
2026-05-06 19:38 48.49169 135.13562 3067 ft 165 kts 226°
2026-05-06 19:38 48.48301 135.12396 3606 ft 174 kts 226°
2026-05-06 19:39 48.47353 135.11110 3938 ft 194 kts 226°
2026-05-06 19:39 48.46279 135.09643 4208 ft 222 kts 225°
2026-05-06 19:39 48.45083 135.07985 4683 ft 244 kts 226°
2026-05-06 19:39 48.43796 135.06200 5364 ft 256 kts 225°
2026-05-06 19:40 48.42481 135.04417 6301 ft 258 kts 225°
2026-05-06 19:40 48.41133 135.02616 7240 ft 260 kts 225°
2026-05-06 19:40 48.39773 135.00783 8106 ft 265 kts 225°
2026-05-06 19:40 48.38387 134.98926 9010 ft 268 kts 225°
2026-05-06 19:41 48.36999 134.97051 9916 ft 269 kts 226°
2026-05-06 19:41 48.35579 134.95113 10458 ft 286 kts 226°
2026-05-06 19:41 48.34056 134.93029 10831 ft 306 kts 226°
2026-05-06 19:41 48.32426 134.90819 11133 ft 326 kts 225°
2026-05-06 19:42 48.30652 134.88522 11479 ft 345 kts 221°
2026-05-06 19:42 48.28543 134.86702 12203 ft 355 kts 207°
2026-05-06 19:42 48.26150 134.85646 12983 ft 364 kts 194°
2026-05-06 19:42 48.23580 134.85516 13663 ft 378 kts 177°
2026-05-06 19:43 48.21028 134.86646 14281 ft 392 kts 157°
2026-05-06 19:43 48.18807 134.89145 14796 ft 409 kts 135°
2026-05-06 19:43 48.17272 134.92777 15480 ft 418 kts 117°
2026-05-06 19:43 48.16054 134.96734 16164 ft 420 kts 118°
2026-05-06 19:44 48.14672 135.00609 16716 ft 424 kts 123°
2026-05-06 19:44 48.13296 135.04563 17301 ft 432 kts 118°
2026-05-06 19:44 48.12293 135.08852 17873 ft 442 kts 105°
2026-05-06 19:44 48.11925 135.13459 18396 ft 450 kts 92°
2026-05-06 19:45 48.11892 135.18172 18876 ft 456 kts 91°
2026-05-06 19:45 48.11869 135.22941 19323 ft 461 kts 92°
2026-05-06 19:45 48.11832 135.27767 19772 ft 466 kts 92°
2026-05-06 19:45 48.11772 135.32648 20213 ft 471 kts 93°
2026-05-06 19:46 48.11693 135.37579 20644 ft 476 kts 93°
2026-05-06 19:46 48.11601 135.42553 21062 ft 481 kts 93°
2026-05-06 19:46 48.11531 135.47582 21473 ft 486 kts 92°
2026-05-06 19:46 48.11496 135.52674 21883 ft 491 kts 92°
2026-05-06 19:47 48.11485 135.57746 22144 ft 498 kts 92°
2026-05-06 19:47 48.11479 135.62957 22490 ft 504 kts 92°
2026-05-06 19:47 48.11469 135.68227 22886 ft 508 kts 93°
2026-05-06 19:47 48.11449 135.73525 23313 ft 511 kts 93°
2026-05-06 19:48 48.11422 135.78872 23634 ft 515 kts 93°
2026-05-06 19:48 48.11385 135.84256 23936 ft 519 kts 94°
2026-05-06 19:48 48.11344 135.89680 24239 ft 523 kts 94°
2026-05-06 19:48 48.11300 135.95146 24539 ft 527 kts 94°
2026-05-06 19:49 48.11251 136.00653 24822 ft 531 kts 94°
2026-05-06 19:49 48.11199 136.06191 25119 ft 535 kts 94°
2026-05-06 19:49 48.11146 136.11772 25403 ft 538 kts 95°
2026-05-06 19:49 48.11090 136.17399 25601 ft 543 kts 95°
2026-05-06 19:50 48.11032 136.23072 25839 ft 547 kts 95°
2026-05-06 19:50 48.10972 136.28784 26138 ft 551 kts 95°
2026-05-06 19:50 48.10907 136.34550 26381 ft 555 kts 95°
2026-05-06 19:50 48.10861 136.38378 26544 ft 558 kts 96°
2026-05-06 19:51 48.10694 136.51640 27132 ft 565 kts 96°
2026-05-06 19:51 48.10617 136.57524 27394 ft 568 kts 96°
2026-05-06 19:51 48.10539 136.63448 27645 ft 571 kts 96°
2026-05-06 19:52 48.10457 136.69396 27884 ft 573 kts 96°
2026-05-06 19:52 48.10370 136.75382 28070 ft 576 kts 96°
2026-05-06 19:52 48.10278 136.81377 28379 ft 577 kts 96°
2026-05-06 19:52 48.10184 136.87381 28745 ft 577 kts 96°
2026-05-06 19:53 48.10088 136.93385 29108 ft 578 kts 96°
2026-05-06 19:53 48.09986 136.99395 29487 ft 578 kts 96°
2026-05-06 19:53 48.09882 137.05414 29855 ft 579 kts 97°
2026-05-06 19:53 48.09776 137.11433 30198 ft 578 kts 96°
2026-05-06 19:54 48.09666 137.17439 30515 ft 577 kts 96°
2026-05-06 19:54 48.09550 137.23431 30839 ft 577 kts 96°
2026-05-06 19:54 48.09432 137.29352 31183 ft 577 kts 96°
2026-05-06 19:54 48.09311 137.35347 31559 ft 576 kts 96°
2026-05-06 19:55 48.09190 137.41337 31898 ft 576 kts 96°
2026-05-06 19:55 48.09064 137.47323 32226 ft 576 kts 96°
2026-05-06 19:55 48.08934 137.53307 32607 ft 575 kts 96°
2026-05-06 19:55 48.08801 137.59291 32989 ft 575 kts 95°
2026-05-06 19:56 48.08668 137.65256 33344 ft 574 kts 95°
2026-05-06 19:56 48.08533 137.71215 33705 ft 573 kts 95°
2026-05-06 19:56 48.08393 137.77164 33986 ft 572 kts 95°
2026-05-06 19:56 48.08247 137.83103 34232 ft 571 kts 95°
2026-05-06 19:57 48.08100 137.89024 34619 ft 568 kts 95°
2026-05-06 19:57 48.07951 137.94909 34745 ft 566 kts 95°
2026-05-06 19:57 48.07643 138.06688 34827 ft 567 kts 95°
2026-05-06 19:58 48.07325 138.18452 34823 ft 565 kts 95°
2026-05-06 19:58 48.06998 138.30191 34822 ft 565 kts 96°
2026-05-06 19:59 48.05768 138.41595 34816 ft 557 kts 109°
2026-05-06 19:59 48.03893 138.52828 34776 ft 557 kts 109°
2026-05-06 20:00 48.02027 138.64062 34783 ft 557 kts 109°
2026-05-06 20:00 48.00145 138.75303 34789 ft 558 kts 109°
2026-05-06 20:01 47.98241 138.86543 34785 ft 558 kts 109°
2026-05-06 20:01 47.96329 138.97758 34738 ft 558 kts 109°
2026-05-06 20:02 47.94407 139.08918 34775 ft 559 kts 109°
2026-05-06 20:02 47.92456 139.20163 34777 ft 559 kts 109°
2026-05-06 20:03 47.90495 139.31389 34775 ft 559 kts 110°
2026-05-06 20:03 47.88522 139.42598 34723 ft 559 kts 110°
2026-05-06 20:04 47.86546 139.53765 34758 ft 557 kts 110°
2026-05-06 20:04 47.84562 139.64914 34785 ft 557 kts 110°
2026-05-06 20:05 47.82564 139.76061 34673 ft 557 kts 110°
2026-05-06 20:05 47.81575 139.81570 34406 ft 559 kts 110°
2026-05-06 20:05 47.80571 139.87145 34020 ft 558 kts 110°
2026-05-06 20:06 47.79566 139.92719 33508 ft 556 kts 110°
2026-05-06 20:06 47.78567 139.98260 33034 ft 553 kts 111°
2026-05-06 20:06 47.77573 140.03766 32556 ft 549 kts 111°
2026-05-06 20:06 47.76582 140.09228 32091 ft 546 kts 111°
2026-05-06 20:07 47.75595 140.14653 31625 ft 542 kts 112°
2026-05-06 20:07 47.74610 140.20033 31171 ft 538 kts 112°
2026-05-06 20:07 47.73623 140.25367 30727 ft 534 kts 112°
2026-05-06 20:07 47.72636 140.30666 30284 ft 530 kts 113°
2026-05-06 20:08 47.71656 140.35920 29817 ft 527 kts 112°
2026-05-06 20:08 47.70680 140.41154 29327 ft 524 kts 112°
2026-05-06 20:08 47.69727 140.46356 28825 ft 520 kts 112°
2026-05-06 20:08 47.68839 140.51537 28331 ft 517 kts 110°
2026-05-06 20:09 47.68008 140.56703 27850 ft 513 kts 110°
2026-05-06 20:09 47.67203 140.61831 27384 ft 508 kts 110°
2026-05-06 20:09 47.66406 140.66908 26907 ft 503 kts 110°
2026-05-06 20:09 47.65602 140.71928 26451 ft 498 kts 110°
2026-05-06 20:10 47.64789 140.76890 25997 ft 493 kts 111°
2026-05-06 20:10 47.63968 140.81796 25528 ft 488 kts 111°
2026-05-06 20:10 47.63148 140.86660 25078 ft 484 kts 111°
2026-05-06 20:10 47.62329 140.91475 24733 ft 474 kts 112°
2026-05-06 20:11 47.61525 140.96075 24754 ft 466 kts 112°
2026-05-06 20:11 47.60670 141.00706 24308 ft 467 kts 113°
2026-05-06 20:11 47.59794 141.05323 23866 ft 464 kts 114°
2026-05-06 20:11 47.58933 141.09860 23436 ft 462 kts 113°
2026-05-06 20:12 47.58073 141.14443 22935 ft 460 kts 113°
2026-05-06 20:12 47.57224 141.19009 22394 ft 459 kts 112°
2026-05-06 20:12 47.56385 141.23557 21861 ft 458 kts 112°
2026-05-06 20:12 47.55544 141.28102 21309 ft 457 kts 112°
2026-05-06 20:13 47.54704 141.32627 20793 ft 455 kts 112°
2026-05-06 20:13 47.53862 141.37139 20301 ft 454 kts 112°
2026-05-06 20:13 47.53303 141.40128 19967 ft 452 kts 112°
2026-05-06 20:13 47.52465 141.44609 19480 ft 450 kts 112°
2026-05-06 20:14 47.51633 141.49052 19066 ft 446 kts 112°
2026-05-06 20:14 47.50803 141.53456 18660 ft 442 kts 112°
2026-05-06 20:14 47.49979 141.57814 18273 ft 438 kts 112°
2026-05-06 20:14 47.49158 141.62136 17831 ft 434 kts 112°
2026-05-06 20:15 47.48346 141.66413 17374 ft 430 kts 111°
2026-05-06 20:15 47.47542 141.70649 16919 ft 425 kts 111°
2026-05-06 20:15 47.46488 141.76181 16299 ft 420 kts 111°
2026-05-06 20:15 47.45953 141.78983 16003 ft 417 kts 111°
2026-05-06 20:16 47.45168 141.83091 15576 ft 413 kts 111°
2026-05-06 20:16 47.44391 141.87146 15143 ft 407 kts 111°
2026-05-06 20:16 47.43629 141.91118 14734 ft 398 kts 110°
2026-05-06 20:16 47.42881 141.95003 14319 ft 389 kts 110°
2026-05-06 20:17 47.42146 141.98814 13912 ft 382 kts 110°
2026-05-06 20:17 47.41428 142.02541 13483 ft 374 kts 110°
2026-05-06 20:17 47.40724 142.06197 13027 ft 367 kts 110°
2026-05-06 20:17 47.40025 142.09790 12607 ft 360 kts 109°
2026-05-06 20:18 47.39342 142.13298 12235 ft 352 kts 109°
2026-05-06 20:18 47.38677 142.16706 11874 ft 348 kts 109°
2026-05-06 20:18 47.38013 142.20113 11512 ft 344 kts 108°
2026-05-06 20:18 47.37354 142.23488 11156 ft 341 kts 108°
2026-05-06 20:19 47.36702 142.26827 10774 ft 337 kts 108°
2026-05-06 20:19 47.36059 142.30118 10358 ft 330 kts 107°
2026-05-06 20:19 47.35427 142.33337 10034 ft 321 kts 107°
2026-05-06 20:19 47.34822 142.36431 9831 ft 308 kts 107°
2026-05-06 20:20 47.34232 142.39439 9450 ft 302 kts 107°
2026-05-06 20:20 47.33653 142.42383 9316 ft 299 kts 107°
2026-05-06 20:20 47.33067 142.45322 9073 ft 298 kts 107°
2026-05-06 20:20 47.32488 142.48232 8738 ft 294 kts 107°
2026-05-06 20:21 47.31920 142.51114 8390 ft 291 kts 106°
2026-05-06 20:21 47.31331 142.53948 8049 ft 288 kts 112°
2026-05-06 20:21 47.30356 142.56477 7713 ft 282 kts 131°
2026-05-06 20:21 47.28942 142.58393 7533 ft 271 kts 142°
2026-05-06 20:22 47.27491 142.60132 7255 ft 267 kts 142°
2026-05-06 20:22 47.26056 142.61825 6956 ft 263 kts 142°
2026-05-06 20:22 47.24634 142.63483 6638 ft 259 kts 142°
2026-05-06 20:22 47.23230 142.65112 6356 ft 255 kts 141°
2026-05-06 20:23 47.21841 142.66721 6058 ft 253 kts 142°
2026-05-06 20:23 47.20463 142.68318 5732 ft 251 kts 141°
2026-05-06 20:23 47.19098 142.69885 5444 ft 248 kts 144°
2026-05-06 20:23 47.17549 142.70907 5122 ft 245 kts 168°
2026-05-06 20:24 47.15850 142.71257 4596 ft 248 kts 173°
2026-05-06 20:24 47.14135 142.71574 4126 ft 248 kts 173°
2026-05-06 20:24 47.12441 142.71894 3714 ft 242 kts 172°
2026-05-06 20:24 47.10831 142.72199 3567 ft 226 kts 177°
2026-05-06 20:25 47.09310 142.72250 3374 ft 212 kts 181°
2026-05-06 20:25 47.07878 142.72221 3218 ft 200 kts 184°
2026-05-06 20:25 47.06528 142.72187 3120 ft 188 kts 184°
2026-05-06 20:25 47.05288 142.72157 3054 ft 167 kts 184°
2026-05-06 20:26 47.04190 142.72130 2879 ft 150 kts 183°
2026-05-06 20:26 47.03186 142.72104 2689 ft 140 kts 184°
2026-05-06 20:26 47.02226 142.72080 2518 ft 136 kts 184°
2026-05-06 20:26 47.01280 142.72056 2345 ft 135 kts 184°
2026-05-06 20:27 47.00336 142.72033 2163 ft 135 kts 183°
2026-05-06 20:27 46.99420 142.72011 1977 ft 133 kts 182°
2026-05-06 20:27 46.98498 142.71987 1797 ft 132 kts 183°
2026-05-06 20:27 46.97580 142.71965 1611 ft 132 kts 182°
2026-05-06 20:28 46.96654 142.71942 1424 ft 131 kts 182°
2026-05-06 20:28 46.95745 142.71919 1224 ft 131 kts 181°
2026-05-06 20:28 46.94836 142.71905 1030 ft 131 kts 180°
2026-05-06 20:28 46.93933 142.71882 879 ft 132 kts 182°
2026-05-06 20:29 46.93013 142.71857 687 ft 132 kts 181°
2026-05-06 20:29 46.92092 142.71834 494 ft 132 kts 182°
2026-05-06 20:29 46.91172 142.71820 361 ft 132 kts 181°
2026-05-06 20:29 46.90251 142.71791 141 ft 132 kts 182°
2026-05-06 20:30 46.89369 142.71760 84 ft 115 kts 181°
2026-05-06 20:30 46.88367 142.71737 83 ft 40 kts 181°
2026-05-06 20:30 46.88151 142.71730 83 ft 27 kts 181°
2026-05-06 20:31 46.88005 142.71728 82 ft 15 kts 180°
2026-05-06 20:31 46.87947 142.71749 81 ft 9 kts 134°
2026-05-06 20:31 46.87942 142.71846 68 ft 11 kts 71°
2026-05-06 20:31 46.87973 142.71965 77 ft 13 kts 69°
2026-05-06 20:32 46.88027 142.72070 73 ft 14 kts 16°
2026-05-06 20:32 46.88124 142.72079 71 ft 15 kts
2026-05-06 20:32 46.88230 142.72080 72 ft 16 kts
2026-05-06 20:32 46.88341 142.72083 69 ft 16 kts
2026-05-06 20:33 46.88458 142.72085 70 ft 17 kts 359°
2026-05-06 20:33 46.88555 142.72088 74 ft 8 kts
2026-05-06 20:33 46.88610 142.72089 73 ft 9 kts
2026-05-06 20:33 46.88673 142.72091 72 ft 9 kts
2026-05-06 20:34 46.88731 142.72120 71 ft 9 kts 68°
2026-05-06 20:34 46.88730 142.72196 73 ft 2 kts 92°
2026-05-06 20:34 46.88730 142.72217 74 ft 2 kts 92°
2026-05-06 20:34 46.88730 142.72223 75 ft 0 kts 92°